STARLINK-2101, 47381

Orbit data source: Space-Track

STARLINK-2101, 47381 is a payload satellite owned by SpaceX/Seattle (US) in LEO that was launched on Wed, 20 Jan 2021 UTC via an FALCON 9 launch vehicle from the Air Force Eastern Test Range (AFETR). Payload-class satellites include a variety of spacecraft equipped with specific instruments for various scientific and technological missions. These include communications satellites like Starlink; space stations such as the ISS; scientific satellites like the Hubble; Earth observation satellites from companies like Planet Labs, Umbra, and HawkEye 360; GPS; miniature CubeSats for education and research; and military/defense satellites.

Loading next visibility...
Identifier
47381, 2021-005AJ
Orbit
LEO
Country
Flag of USUS
Related business
Manufacturer
SpaceX/Seattle
Mission
Operational Commercial Communications
Bus & Motor
STARLINK, Unknown motor
Mass
260 kg wet, ~248 kg dry
Launch date (UTC)
2021-01-20 (5 years ago)
Launch vehicle
FALCON 9
Launch site
Air Force Eastern Test Range (AFETR)
Object type
Payload
Rocket body
Debris
Shape & HBR
Box + 1 Pan, 10.1 m
Radar Cross Section
13.562 m², Large (>1 m²)

Expand to show TLE details & history
Last TLE update: 3 days ago

TLE from 3 days ago
0 STARLINK-2101
1 47381U 21005AJ  26170.70807522  .00012254  00000-0  40547-3 0  9995
2 47381  53.1593 282.8136 0001246  59.5630 300.5494 15.31741401299015
Epoch: 2026-06-19T16:59Z
TLE epoch observation values (Epoch: 2026-06-19T16:59:37.699Z)
Latitude
-0.00003°
Longitude
119.97332°
Altitude
471.083 km
Speed
7.632 km/s
True Right ascension
18h 51m 15s
True Declination
0° 00' 00"
Sunlit
Object was in full shadow at epoch
Visualization orbit readout
Latitude
Unknown
Longitude
Unknown
Altitude
Unknown
Speed
Unknown
Apparent Right ascension
Unknown
Apparent Declination
Unknown
Sunlit
N/A
Visualization observer readout
Local Sidereal Time
00:50:03
Azimuth
Unknown
Elevation
Unknown
Doppler factor
Unknown
Orbital elements
Apogee altitude
471.727 km
Perigee altitude
470.02 km
Semi-major axis
6,849.01 km
Eccentricity
0.00012
Inclination
53.1593°
RAAN
282.8136°
Arg. of periapsis
59.563°
True anomaly
300.5371°
Mean anomaly
300.5494°
Eccentric anomaly
300.54325°
Mean motion
3.82914 °/min
Orbital period
94.02 mins
BSTAR
0.00040547
Loading maneuver chart data...
Computing Atmospheric mass density...

Documentation

Showing up to 5 results
|